Location: Ceske Budejovice
(48.9830°N, 14.4670°E)
Time: 19:05:54
(UTC+01:00)

ISS - Visible Passes

Search period start: 21 March 2019 00:00
Search period end: 31 March 2019 00:00
Orbit: 406 x 411 km, 51.6° (Epoch: 21 March)

Date Brightness Start Highest point End Pass type
(mag) Time Alt. Az. Time Alt. Az. Time Alt. Az.
21 Mar -1.3 20:28:19 10° SW 20:28:52 14° SW 20:28:52 14° SW visible
22 Mar -2.7 19:37:41 10° SSW 19:40:30 26° SE 19:40:42 26° SE visible
23 Mar -3.3 20:22:27 10° WSW 20:25:05 53° SW 20:25:05 53° SW visible
24 Mar -3.6 19:31:29 10° SW 19:34:41 51° SSE 19:36:30 22° E visible
24 Mar -1.3 21:08:00 10° W 21:09:16 21° W 21:09:16 21° W visible
25 Mar -3.6 20:16:49 10° W 20:20:06 69° NNW 20:20:31 59° NE visible
26 Mar -3.9 19:25:39 10° WSW 19:28:57 90° S 19:31:39 15° ENE visible
26 Mar -1.9 21:02:28 10° WNW 21:04:24 30° WNW 21:04:24 30° WNW visible
27 Mar -3.2 20:11:14 10° W 20:14:28 53° N 20:15:26 37° NE visible
27 Mar -0.4 21:48:00 10° WNW 21:48:10 11° WNW 21:48:10 11° WNW visible
28 Mar -3.4 19:19:58 10° W 19:23:15 62° NNW 19:26:23 11° ENE visible
28 Mar -2.4 20:56:49 10° WNW 20:59:07 38° NW 20:59:07 38° NW visible
29 Mar -3.2 20:05:35 10° WNW 20:08:50 51° N 20:10:01 32° ENE visible
29 Mar -0.7 21:42:14 10° WNW 21:42:45 14° WNW 21:42:45 14° WNW visible
30 Mar -3.2 19:14:20 10° W 19:17:34 51° N 19:20:49 10° ENE visible
30 Mar -2.9 20:51:03 10° WNW 20:53:37 49° NW 20:53:37 49° NW visible
